Regional Weather Roundup
Issued by NWS

Home | Current Version | Previous Version | Graphics & Text | Print | Product List | Glossary On
Versions: 1 2 3 4 5 6 7 8 9 10 11 12 13 14 15 16 17 18 19 20 21 22 23 24 25 26 27 28 29 30 31 32 33 34 35 36 37 38 39 40 41 42 43 44 45 46 47 48 49 50
088
ASUS43 KIND 280859
RWRIN

WEATHER ROUNDUP FOR INDIANA
NATIONAL WEATHER SERVICE INDIANAPOLIS IN
500 AM EDT THU JUL 28 2016

NOTE: "FAIR" INDICATES FEW OR NO CLOUDS BELOW 12,000 FEET WITH NO
SIGNIFICANT WEATHER AND/OR OBSTRUCTIONS TO VISIBILITY.

* - STATION DOES NOT REPORT WEATHER SUCH AS PRECIPITATION OR FOG.

+ - STATION NOT QUALITY CONTROLLED BY THE NATIONAL WEATHER SERVICE.
    USE DATA WITH CAUTION...ESPECIALLY DEWPOINT AND RELATIVE
    HUMIDITY OBSERVATIONS.

INZ001>003-010>013-019-020-281000-
NORTHWEST INDIANA

CITY           SKY/WX    TMP DP  RH WIND       PRES   REMARKS
KNOX *+          N/A     64  63  94 CALM      29.91S
MONTICELLO +   CLOUDY    67  64  87 CALM      29.90S
RENSSELAER +   CLOUDY    66  66 100 CALM      29.91S FOG

$$

LMZ046-743>745-281000-
SOUTHERN LAKE MICHIGAN

STATION/POSITION TIME  TEMP    WIND        PRES    WAVE
                       AIR SEA DIR/SP/G            HT
                 (UTC) (F)     (DEG/KT/KT) (MB)    (FT)
BURNS HARBOR     0801   72     180/  1/  4 1013.2F
MICHIGAN CITY    0800   74     140/  5/  6   N/A
5NW MICH CITY    0800   76 77  170/  4/  4   N/A     0

$$

INZ004-005-014>016-021>024-281000-
NORTH CENTRAL INDIANA

CITY           SKY/WX    TMP DP  RH WIND       PRES   REMARKS
GOSHEN         MOCLDY    65  62  90 CALM      29.91F
SOUTH BEND     CLEAR     68  65  90 CALM      29.92S
WARSAW +       CLOUDY    64  64 100 CALM      29.91F

$$

INZ006>009-017-018-025>027-281000-
NORTHEAST INDIANA

CITY           SKY/WX    TMP DP  RH WIND       PRES   REMARKS
ANGOLA *+        N/A     64  64 100 CALM      29.92S
FORT WAYNE     CLOUDY    69  64  84 N5        29.90F

$$

INZ028-029-035-036-043>045-051>053-281000-
WEST CENTRAL INDIANA

CITY           SKY/WX    TMP DP  RH WIND       PRES   REMARKS
CRAWFORDSVL +  CLOUDY    67  67 100 CALM      29.90F
GREENCASTLE +  MOCLDY    70  70 100 CALM      29.91S
LAFAYETTE      CLOUDY    67  67 100 CALM      29.89S
TERRE HAUTE    CLOUDY    74  71  91 CALM      29.88F

$$

INZ030>032-037>040-046>048-054>057-064-065-281000-
CENTRAL INDIANA

CITY           SKY/WX    TMP DP  RH WIND       PRES   REMARKS
INDIANAPOLIS   CLOUDY    77  65  66 VRB5      29.90F
-EAGLE CREEK   CLOUDY    75  67  76 CALM      29.89F
KOKOMO *+      CLOUDY    68  63  83 CALM      29.91S
SHELBYVILLE    MOCLDY    75  69  81 SE3       29.89F
ZIONSVILLE +   CLOUDY    67  66  97 CALM      29.92R

$$

INZ033-034-041-042-049-050-058-059-281000-
EAST CENTRAL INDIANA

CITY           SKY/WX    TMP DP  RH WIND       PRES   REMARKS
MUNCIE         PTCLDY    72  67  84 CALM      29.90F

$$

INZ060-061-067>069-081>083-085>088-281000-
SOUTHWEST INDIANA

CITY           SKY/WX    TMP DP  RH WIND       PRES   REMARKS
EVANSVILLE     MOCLDY    73  71  93 SW6       29.90F
HUNTINGBURG *+ CLOUDY    73  70  88 CALM      29.91R
WASHINGTON +   CLOUDY    74  74 100 MISG      29.89F

$$

INZ062-063-066-070>080-084-089>092-281000-
SOUTH CENTRAL AND SOUTHEAST INDIANA

CITY           SKY/WX    TMP DP  RH WIND       PRES   REMARKS
BLOOMINGTON    RAIN      72  69  90 W6        29.92S
MADISON *+     CLOUDY    73  70  88 S8        29.92F VSB 3/4
SEYMOUR +      CLOUDY    73  72  94 CALM      29.91S VSB 3/4

$$





USA.gov is the U.S. government's official web portal to all federal, state and local government web resources and services.